Weather Service Report


219 
ASUS44 KLUB 250910
RWRTX 
WEST TEXAS WEATHER ROUNDUP
NATIONAL WEATHER SERVICE LUBBOCK TX
400 AM CDT SAT JUN 25 2016

NOTE: "FAIR" INDICATES FEW OR NO CLOUDS BELOW 12,000 FEET WITH NO
SIGNIFICANT WEATHER AND/OR OBSTRUCTIONS TO VISIBILITY.

TXZ004-006>008-010-012-014-016-OKZ002-251000-
TEXAS PANHANDLE/OKLAHOMA PANHANDLE
  
CITY           SKY/WX    TMP DP  RH WIND       PRES   REMARKS
AMARILLO       CLEAR     73  58  59 S15       30.03S                  
BORGER         MOCLDY    77  60  55 S8G18     29.99S                  
CANADIAN       CLEAR     74  65  72 CALM      29.97S                  
DALHART        PTCLDY    73  55  53 S12       30.02F                  
DUMAS          PTCLDY    73  57  57 S10       30.01F                  
GUYMON         PTCLDY    72  59  63 S9        29.95F                  
HEREFORD       CLEAR     72  59  62 SW8       30.05S                  
PAMPA          CLEAR     73  62  66 S13G18    30.01S                  
PERRYTON       MOCLDY    76  63  64 S14       29.97F                  
$$

TXZ026-029-035-045-048-251000-
SOUTHERN PANHANDLE/SOUTH PLAINS/ROLLING PLAINS
  
CITY           SKY/WX    TMP DP  RH WIND       PRES   REMARKS
CHILDRESS      CLEAR     74  63  68 S10       29.96S                  
SEMINOLE       CLEAR     72  59  63 SE7       30.04S                  
LUBBOCK        CLEAR     76  58  53 S17       30.02F                  
PLAINVIEW      CLEAR     69  58  67 S7        30.02S                  
SNYDER           N/A     70  62  74 SE8       30.02S                  
$$

TXZ052-054-060>062-072-078-127-140-154-169-251000-
PERMIAN BASIN/CONCHO VALLEY/BIG COUNTRY/EDWARDS PLATEAU  
  
CITY           SKY/WX    TMP DP  RH WIND       PRES   REMARKS
ABILENE        MOCLDY    76  70  82 S9        30.01S                  
BIG SPRING     MOCLDY    75  62  64 SE13      30.03S                  
BROWNWOOD      CLOUDY    75  72  88 SE7       30.02S                  
JUNCTION       PTCLDY    76  67  73 SE10      30.02S                  
MIDLAND        PTCLDY    75  61  61 SE13      30.00F                  
ODESSA         CLEAR     74  60  61 SE9       30.01F                  
SAN ANGELO     PTCLDY    73  67  81 SE3       30.00S                  
SONORA         PTCLDY    77  68  73 SE14      30.05S                  
SWEETWATER     CLOUDY    74  63  70 SE8       30.04F                  
WINK           CLEAR     74  60  61 SE9       29.96F                  
$$

TXZ055-058-074-075-080-082-251000-
FAR WEST/SOUTHWEST MOUNTAINS/TRANS PECOS
  
CITY           SKY/WX    TMP DP  RH WIND       PRES   REMARKS
ALPINE         CLEAR     69  54  59 SW3       30.13S                  
DRYDEN           N/A     79  66  64 SE16G23   29.95F                  
EL PASO        MOCLDY    76  56  49 E5        30.04F                  
FORT STOCKTON  PTCLDY    75  60  59 SE14      29.98F                  
GUADALUPE PASS CLEAR     68  54  60 NE10        N/A                   
MARFA          CLEAR    N/A N/A N/A NW6       30.13F                  
PECOS          CLEAR     74  60  60 E9        29.95F                  
PRESIDIO       FAIR      80  54  39 N6        29.96S                  
$$

TXZ014-016-019-021>030-083-251000
TEXAS TECH WEST TEXAS MESONET/TEXAS PANHANDLE/NORTHERN SOUTH PLAINS
  
CITY           SKY/WX    TMP DP  RH WIND       PRES   REMARKS
ABERNATHY 5ENE   N/A     71  58  64 S10       30.05F                  
AMARILLO 9NNE    N/A     73  59  61 S17       30.00F                  
AMARILLO 7SSE    N/A     69  58  69 S9        30.05S                  
AMHERST 1NE      N/A     68  55  63 S9        30.06S                  
BOOTLEG 11WNW    N/A     69  54  57 S14       30.09F                  
CANADIAN 6E      N/A     73  63  70 S7        29.96F                  
CAPROCK CYN SP   N/A     72  60  66 S9        30.01S                  
CHILDRESS 2NNE   N/A     73  63  72 S12       29.97S                  
CLARENDON 2WSW   N/A     71  60  69 S8        30.02S                  
CLAUDE 12SW      N/A     75  59  57 S12       30.04S                  
DIMMITT 2NE      N/A     68  57  66 S13       30.07S                  
FLOYDADA 2NNE    N/A     70  58  65 S10       30.03S                  
FRIONA 2NE       N/A     69  55  60 S9        30.08S                  
GOODLETT 3W      N/A     75  63  67 S12       29.95F                  
HEREFORD 2NW     N/A     69  54  60 S7        30.08S                  
MCLEAN 1E        N/A     70  62  75 S10       30.00S                  
MEMPHIS 1NE      N/A     74  64  70 SW1       29.99S                  
MULESHOE 2SSW    N/A     68  54  61 S6        30.07F                  
OLTON 6S         N/A     68  57  68 S9        30.06S                  
PALO DURO SP     N/A     72  59  62 S9        30.05S                  
PAMPA 2E         N/A     71  61  70 S15       30.01F                  
PLAINVIEW 1S     N/A     70  59  68 S8        30.05S                  
SILVERTON 7ESE   N/A     71  58  64 S10       30.02S                  
TULIA 2ENE       N/A     70  59  68 S12       30.05S                  
TURKEY 2WSW      N/A     72  62  70 S7        29.99S                  
UMBARGER 3NNE    N/A     69  59  72 S10       30.06S                  
$$

TXZ033>036-039>041-045>048-251000
TEXAS TECH WEST TEXAS MESONET/SOUTH PLAINS  
  
CITY           SKY/WX    TMP DP  RH WIND       PRES   REMARKS
AIKEN 3WSW       N/A     69  60  71 S7        30.06R                  
ANDREWS 2NE      N/A     71  58  63 SE6       30.05S                  
ANTON 6SSW       N/A     68  57  68 S7        30.05S                  
BROWNFIELD 2S    N/A     71  58  62 S10       30.05S                  
DENVR CTY 7WNW   N/A     70  55  60 SE9       30.06S                  
GAIL 2ESE        N/A     71  62  71 S7        30.01S                  
LAMESA 2SE       N/A     71  60  69 SE9       30.04S                  
LEVELLAND 4S     N/A     72  55  55 S12       30.06S                  
LUBBOCK 3WNW     N/A     74  56  54 S12       30.05S                  
MORTON 1ENE      N/A     73  55  53 S13       30.06S                  
ODONNELL 1N      N/A     72  58  61 S10       30.03F                  
PLAINS 3N        N/A     71  56  59 S12       30.07S                  
RALLS 1SE        N/A     69  58  67 S9        30.05S                  
REESE CENTER     N/A     71  56  59 S12       30.05S                  
SEAGRAVES 1SW    N/A     72  59  64 S8        30.05S                  
SEMINOLE 2NNE    N/A     71  58  64 SE8       30.04F                  
SLATON 2NE       N/A     71  59  65 S12       30.04S                  
SNYDER 3E        N/A     72  62  69 SE10      30.02S                  
SUNDOWN 8SW      N/A     71  56  59 S10       30.06R                  
TAHOKA 3NNE      N/A     71  59  65 S10       30.04S                  
WOLFFORTH 6SSW   N/A     72  56  58 S10       30.05S                  
$$

TXZ031-032-036>038-042>044-251000-
TEXAS TECH WEST TEXAS MESONET/ROLLING PLAINS 
  
CITY           SKY/WX    TMP DP  RH WIND       PRES   REMARKS
ASPERMONT 3NE    N/A     76  64  67 S12       29.98S                  
FLUVANNA 3WNW    N/A     71  59  66 S12       30.02F                  
GRAHAM 5SSW      N/A     73  59  61 S13       30.03S                  
GUTHRIE 10WSW    N/A     72  61  67 SE12      29.98S                  
HASKELL 1NW      N/A     77  66  68 S12       29.98S                  
JAYTON 1SSE      N/A     72  61  68 SE8       29.99S                  
KNOX CITY 3NW    N/A     77  65  67 S10       29.97S                  
LK A HENRY 1NW   N/A     76  60  57 S9        29.99F                  
NORTHFIELD 1S    N/A     73  64  74 S12       29.98S                  
ODELL 4ENE       N/A     76  67  74 S14       29.97S                  
PADUCAH 10SW     N/A     70  63  79 S9        29.98S                  
POST 1NE         N/A     72  58  62 S7        30.01S                  
RRING SPRGS 3N   N/A     70  62  76 S10       30.01S                  
SEYMOUR 3NW      N/A     76  67  72 SE8       29.97S                  
SPUR 1W          N/A     70  60  70 SW2       30.00S                  
WEINERT 2NNE     N/A     77  68  73 S15       29.98S                  
WHITE RVR 6NE    N/A     70  58  64 SW6       30.02S                  
$$

TXZ052-054-060>062-072-078-127-140-154-169-251000-
TEXAS TECH WEST TEXAS MESONET/PERMIAN BASIN/
CONCHO VALLEY/BIG COUNTRY/EDWARDS PLATEAU
  
CITY           SKY/WX    TMP DP  RH WIND       PRES   REMARKS
COYANOSA 2N      N/A     75  59  57 SE8       29.98S                  
JUNCTION 1SSW    N/A     75  68  78 SE9       30.04R                  
MERTZON 3NNE     N/A     72  66  81 CALM      30.03S                  
SAN ANGELO 7NW   N/A     73  62  67 E6        30.02S                  
STRLNG CT 4WSW   N/A     73  63  69 SE6       30.03S                  
ST LAWRNCE 5SW   N/A     74  62  67 SE14      30.02F                  
SWEETWATR 11SW   N/A     74  65  73 S13       30.04F                  
WALL 1E          N/A     76  66  70 SE10      30.02F                  
$$

TXZ055-058-074-075-080-082-251000-
TEXAS TECH WEST TEXAS MESONET/FAR WEST/SOUTHWEST MOUNTAINS/TRANS PECOS
  
CITY           SKY/WX    TMP DP  RH WIND       PRES   REMARKS
PRSMN GAP BBNP   N/A     81  55  41 E6        29.98F                  
GUADLPE MTN NP   N/A     66  52  61 NW2       30.17F                  
$$
  

Return to Home page


Western Regional Climate Center, wrcc@dri.edu